This demonstration page uses our WeatherBlox Daily Observations layout. Learn more.

Left ArrowRight Arrow

34.74481, -87.66753

Hourly Observations for December 7, 2022

Temp ( °F °C ) Dew Point ( °F °C ) Humidity (%) Winds ( mph kmh ) Pressure ( in mb ) Visibility ( mi km ) Precip ( " mm )
12:53 am 00:53 Cloudy 70 21.1 65 18.3 84 84 SSW 12 19 30.08 1019 10 16 0.00 0.00
1:53 am 01:53 Mostly Cloudy 70 21.1 64 17.8 81 81 SSW 12 19 30.09 1019 10 16 0.00 0.00
2:53 am 02:53 Cloudy 69 20.6 65 18.3 87 87 SSW 10 17 30.10 1019 10 16 0.00 0.00
3:53 am 03:53 Cloudy 70 21.1 65 18.3 84 84 SW 10 17 30.11 1020 10 16 0.00 0.00
4:53 am 04:53 Cloudy 70 21.1 66 18.9 87 87 WSW 10 17 30.13 1020 10 16 0.01 0.25
5:53 am 05:53 Mostly Cloudy 69 20.6 66 18.9 90 90 SW 9 15 30.13 1020 10 16 0.00 0.00
6:53 am 06:53 Cloudy 70 21.1 66 18.9 87 87 SW 12 19 30.15 1021 10 16 0.00 0.00
7:53 am 07:53 Cloudy with Light Rain 69 20.6 66 18.9 90 90 SW 10 17 30.18 1022 8 13 0.02 0.51
8:11 am 08:11 Cloudy with Light Rain 69 20.6 67 19.4 93 93 SW 10 17 30.19 1022 3 4 0.05 1.27
8:18 am 08:18 Cloudy with Light Rain 69 20.6 67 19.4 93 93 SW 9 15 30.19 1022 7 11 0.05 1.27
8:37 am 08:37 Mostly Cloudy with Light Rain 69 20.6 67 19.4 93 93 SW 9 15 30.20 1023 6 10 0.07 1.78
8:53 am 08:53 Mostly Cloudy with Rain 69 20.6 67 19.4 93 93 SW 9 15 30.19 1023 4 6 0.10 2.54
9:11 am 09:11 Cloudy with Light Rain 69 20.6 67 19.4 93 93 SSW 8 13 30.20 1023 7 11 0.02 0.51
9:53 am 09:53 Cloudy 70 21.1 67 19.4 90 90 SW 8 13 30.22 1023 10 16 0.03 0.76
10:50 am 10:50 Cloudy with Light Rain 72 22 66 19 83 83 WSW 10 17 30.21 1023 10 16 0.01 0.13
10:53 am 10:53 Cloudy with Light Rain 71 21.7 67 19.4 87 87 WSW 9 15 30.22 1023 10 16 0.01 0.13
11:11 am 11:11 Cloudy with Heavy Rain 70 21.1 67 19.4 90 90 W 10 17 30.22 1023 2 3 0.08 2.03
11:25 am 11:25 Cloudy with Light Rain 69 20.6 67 19.4 93 93 W 8 13 30.22 1023 3 5 0.15 3.81
11:39 am 11:39 Cloudy 70 21.1 67 19.4 90 90 W 6 9 30.21 1023 10 16 0.15 3.81
11:53 am 11:53 Cloudy 70 21.1 67 19.4 90 90 WSW 7 11 30.20 1023 10 16 0.15 3.81
12:11 pm 12:11 Cloudy with Light Rain 70 21.1 67 19.4 90 90 WSW 7 11 30.21 1023 9 14 0.01 0.13
12:53 pm 12:53 Cloudy 70 21.1 68 20 93 93 SW 7 11 30.18 1022 10 16 0.01 0.25
1:02 pm 13:02 Cloudy 70 21.1 68 20 93 93 SSW 6 9 30.17 1022 9 14 0.00 0.00
1:20 pm 13:20 Cloudy 71 21.7 68 20 90 90 WSW 7 11 30.19 1022 10 16 0.00 0.00
1:48 pm 13:48 Cloudy with Light Rain 72 22 68 20 88 88 WSW 9 15 30.18 1022 5 8 0.01 0.25
1:53 pm 13:53 Cloudy with Light Rain 71 21.7 68 20 90 90 SW 8 13 30.18 1022 5 8 0.01 0.25
1:56 pm 13:56 Mostly Cloudy with Light Rain 71 21.7 68 20 90 90 SW 9 15 30.19 1022 7 11 0.01 0.13
2:24 pm 14:24 Mostly Cloudy 72 22.2 69 20.6 91 91 W 7 11 30.19 1022 10 16 0.01 0.13
2:35 pm 14:35 Mostly Cloudy 72 22.2 68 20 87 87 W 8 13 30.19 1022 10 16 0.01 0.13
2:53 pm 14:53 Cloudy 72 22.2 67 19.4 84 84 WSW 7 11 30.19 1022 10 16 0.01 0.13
3:38 pm 15:38 Cloudy 71 21.7 68 20 90 90 WSW 5 7 30.21 1023 10 16 0.00 0.00
3:48 pm 15:48 Cloudy 72 22 68 20 88 88 WSW 6 9 30.21 1023 10 16 0.00 0.00
3:53 pm 15:53 Cloudy 71 21.7 67 19.4 87 87 WSW 7 11 30.21 1023 10 16 0.00 0.00
4:20 pm 16:20 Cloudy 71 21.7 67 19.4 87 87 WSW 6 9 30.21 1023 10 16 0.00 0.00
4:53 pm 16:53 Cloudy 70 21.1 67 19.4 90 90 WSW 5 7 30.22 1023 10 16 0.00 0.00
5:18 pm 17:18 Cloudy 69 20.6 66 18.9 90 90 W 6 9 30.22 1023 10 16 0.00 0.00
5:53 pm 17:53 Mostly Cloudy 69 20.6 66 18.9 90 90 Calm 30.22 1023 10 16 0.00 0.00
6:53 pm 18:53 Cloudy with Light Rain 67 19.4 65 18.3 93 93 SW 3 6 30.24 1024 7 11 0.01 0.13
7:48 pm 19:48 Cloudy 68 20 66 19 94 94 SSW 6 9 30.24 1024 7 11 0.01 0.13
7:53 pm 19:53 Cloudy 68 20 66 18.9 93 93 S 5 7 30.24 1024 7 11 0.01 0.13
8:17 pm 20:17 Cloudy with Mist and Fog 67 19.4 66 18.9 97 97 WNW 3 6 30.25 1024 6 10 0.00 0.00
8:53 pm 20:53 Cloudy with Mist and Fog 67 19.4 65 18.3 93 93 Calm 30.24 1024 1 2 0.00 0.00
9:00 pm 21:00 Cloudy with Fog 66 18.9 65 18.3 96 96 Calm 30.24 1024 1 1 0.00 0.00
9:22 pm 21:22 Mostly Cloudy with Fog 66 18.9 65 18.3 96 96 Calm 30.24 1024 1 1 0.00 0.00
9:29 pm 21:29 Mostly Cloudy with Fog 65 18.3 64 17.8 97 97 Calm 30.24 1024 1 1 0.00 0.00
9:37 pm 21:37 Mostly Cloudy with Fog 66 18.9 65 18.3 96 96 Calm 30.24 1024 0 0 0.00 0.00
9:46 pm 21:46 Mostly Cloudy with Fog 66 18.9 65 18.3 96 96 Calm 30.24 1024 1 1 0.00 0.00
9:53 pm 21:53 Cloudy with Fog 65 18.3 64 17.8 97 97 Calm 30.24 1024 1 1 0.00 0.00
10:15 pm 22:15 Mostly Clear with Fog 66 18.9 65 18.3 96 96 Calm 30.25 1024 0 0 0.00 0.00
10:26 pm 22:26 Mostly Clear with Fog 66 18.9 65 18.3 96 96 Calm 30.24 1024 1 1 0.00 0.00
10:53 pm 22:53 Cloudy with Fog 66 18.9 65 18.3 96 96 Calm 30.24 1024 1 1 0.00 0.00
11:41 pm 23:41 Cloudy with Fog 66 18.9 65 18.3 96 96 Calm 30.22 1023 0 0 0.01 0.13
11:53 pm 23:53 Mostly Clear with Fog 66 18.9 65 18.3 96 96 Calm 30.22 1023 0 0 0.01 0.13

Powered by AerisWeather